Globalstar M074

operational
NORAD ID: 37189 Int'l Des: 2010-054 Owner: GLOB Country: US Constellation: globalstar
LEOCIRCULAR

Globalstar M074について

説明を読み込み中...

リアルタイム位置

3D地球を読み込み中...

次回通過

高度履歴

Altitude vs Time

uPlot chart will show altitude changes over time

軌道要素

1 37189U 10054B 26061.18860371 -.00000093 00000-0 62380-4 0 9993
2 37189 52.0012 73.6709 0000312 130.8370 306.7696 12.62266308709649
Epoch: Mar 2, 2026 • Age: 29 hours

現在のステータス

高度 1426.4 km
速度 7.15 km/s
衛星直下点 -38.75°S, 162.86°E
打ち上げ日 Oct 19, 2010
運用期間 15.3 years
タイプ communications

技術仕様

分類 Payload
質量 715.00 kg
乾燥質量 500.00 kg
総質量 715.00 kg
長さ 4.00 m
直径 2.00 m
スパン 12.00 m
形状 Trap Cyl + 2 Pan
製造者 THALR
バスタイプ Prisma
フェーズステータス In Orbit
所有者/国 GLOB/US

大規模コンステレーション

Loading constellations...